Flag for U.S.A. Weather past 2 weeks in Oklahoma City, Oklahoma, U.S.A.

Now
49 °F

Overcast.


Feels Like: 45 °F
Forecast: 38 / 47 °F
Wind: 8 mph from North

Location: Will Rogers World Airport

Current Time: Dec 22, 2014 at 8:30:04 PM

Latest Report: Dec 22, 2014 at 7:52 PM


Visibility: 10 mi

Pressure: 29.65 "Hg

Humidity: 59%

Dew point: 35 °F

Location of Oklahoma CityLocation

Historic Weather in Oklahoma City — Graph

°F

Oklahoma City temperature yesterday

Maximum temperature yesterday: 48 °F (at 12:52 PM)
Minimum temperature yesterday: 42 °F (at 12:52 AM)
Average temperature yesterday: 46 °F

Past Weeks' High & Low Weather Summary

 TemperatureHumidityPressure
High66 °F (Dec 13, 2:52 PM)97% (Dec 13, 9:52 AM)30.38 "Hg (Dec 13, 9:52 AM)
Low33 °F (Dec 16, 4:52 AM)37% (Dec 15, 3:52 PM)29.52 "Hg (Dec 22, 4:52 AM)
Average47 °F78%30.10 "Hg
* Reported Dec 7 6:52 PM — Dec 22 6:52 PM, Oklahoma City, Weather by CustomWeather, © 2014

Note: Actual official high and low records may vary slightly from our data, if they occured in-between our weather recording intervals... More about our weather records

Advertising

Oklahoma City weather history for previous 24 hours

 ConditionsComfort  
Time TempWeatherWind HumidityBarometerVisibility
6:52 PM
Dec 22
49 °FPassing clouds.8 mph57%29.64 "Hg10 mi
5:52 PM53 °FPassing clouds.12 mph52%29.62 "Hg10 mi
4:52 PM54 °FPartly sunny.12 mph51%29.60 "Hg10 mi
3:52 PM55 °FBroken clouds.13 mph51%29.61 "Hg10 mi
2:52 PM58 °FBroken clouds.18 mph47%29.58 "Hg10 mi
1:52 PM56 °FScattered clouds.16 mph51%29.55 "Hg10 mi
12:52 PM55 °FBroken clouds.21 mph57%29.57 "Hg10 mi
11:52 AM51 °FBroken clouds.10 mph71%29.56 "Hg10 mi
10:52 AM52 °FOvercast.17 mph69%29.61 "Hg10 mi
9:52 AM51 °FBroken clouds.9 mph77%29.58 "Hg9 mi
8:52 AM50 °FOvercast.7 mph83%29.58 "Hg7 mi
7:52 AM48 °FFog.3 mph89%29.57 "Hg4 mi
6:59 AM48 °FFog.No wind87%29.56 "Hg6 mi
6:02 AM48 °FFog.3 mph87%29.55 "Hg6 mi
5:52 AM48 °FFog.3 mph89%29.54 "Hg5 mi
4:52 AM49 °FFog.9 mph86%29.52 "Hg6 mi
3:52 AM49 °FMostly cloudy.7 mph86%29.54 "Hg7 mi
2:52 AM49 °FOvercast.12 mph86%29.55 "Hg7 mi
1:52 AM49 °FLow clouds.15 mph86%29.57 "Hg7 mi
12:52 AM48 °FLow clouds.13 mph89%29.59 "Hg7 mi
11:52 PM
Dec 21
48 °FLow clouds.17 mph86%29.62 "Hg7 mi
10:52 PM48 °FFog.17 mph86%29.64 "Hg6 mi
9:52 PM48 °FFog.15 mph86%29.66 "Hg5 mi
8:52 PM47 °FFog.18 mph90%29.69 "Hg6 mi
Weather by CustomWeather, © 2014

See weather overviewHow to use our weather pages